sat.trackr.live / text

‹ back to catalog

STARLINK-1230

NORAD 45189 · 2020-012M

PAYLOAD ACTIVE UNKNOWN

§ Identity

Operator
Country
US
Launch date
2020-02-17
Launch site
AFETR
Launch vehicle
Mass (kg)
RCS (m²)

Purposes: comms

External: N2YO · Heavens-Above · Gunter

§ Orbital elements

Epoch: 2026-05-25T02:45:58.813056Z

Period
93.90 min
Inclination
53.1572°
Eccentricity
0.0002860
Mean motion
15.33595770 rev/d
Perigee alt
463.1 km
Apogee alt
467.1 km
Semi-major
6,843.2 km
B*
1.1672e-3
RAAN
44.1424°
Arg perigee
117.8726°
Mean anomaly
242.2566°
Rev number
34,387

§ Raw data

STARLINK-12301 45189U 20012M   26145.11526404  .00038268  00000+0  11672-2 0  99982 45189  53.1572  44.1424 0002860 117.8726 242.2566 15.33595770343876

JSON: /api/v1/satellites/45189 · /tle

For live sub-satellite position, see the globe view (requires WebGL).

§ Visibility from observer

Set your observer location to see the next 7 days of passes ≥ 10°. The values pass through the URL so the page stays shareable.

No JS? Fill the form by hand. The geolocation button needs JavaScript.